"Period start","avg(HW err(1)/warn(2) (#))","avg(Visibility (m))","avg(Weather code (#))","avg(Precip intensity (mm/h))","min(HW err(1)/warn(2) (#))","max(HW err(1)/warn(2) (#))","std(HW err(1)/warn(2) (#))","med(HW err(1)/warn(2) (#))","min(Visibility (m))","max(Visibility (m))","std(Visibility (m))","med(Visibility (m))","min(Weather code (#))","max(Weather code (#))","std(Weather code (#))","med(Weather code (#))","min(Precip intensity (mm/h))","max(Precip intensity (mm/h))","std(Precip intensity (mm/h))","med(Precip intensity (mm/h))"
2013-08-13 00:00:00,0,7384,47,0.13,0,0,0,0,6811,7635,217,7423,10,61,19,51,0.00,0.45,0.12,0.12
2013-08-13 00:10:00,0,7404,39,0.06,0,0,0,0,7132,7687,153,7412,10,61,20,41,0.00,0.30,0.09,0.03
2013-08-13 00:20:00,0,6444,41,1.19,0,0,0,0,5445,8017,887,6013,10,61,25,61,0.00,4.40,1.52,0.52
2013-08-13 00:30:00,0,6424,52,0.34,0,0,0,0,5683,7005,402,6456,51,61,3,51,0.10,1.10,0.29,0.20
2013-08-13 00:40:00,0,6378,52,1.23,0,0,0,0,5995,6797,235,6326,51,52,0,52,0.50,2.35,0.59,1.20
2013-08-13 00:50:00,0,6819,54,0.36,0,0,0,0,6324,7139,269,6958,51,61,4,52,0.05,1.05,0.34,0.23
2013-08-13 01:00:00,0,5915,57,4.44,0,0,0,0,5315,6683,505,5856,51,62,5,61,0.15,12.35,3.65,4.55
2013-08-13 01:10:00,0,4832,62,15.52,0,0,0,0,3848,5614,476,4904,62,62,0,62,10.65,26.90,4.36,14.92
2013-08-13 01:20:00,0,5220,61,4.24,0,0,0,0,4629,5556,312,5332,61,61,0,61,1.75,7.20,1.68,3.83
2013-08-13 01:30:00,0,5381,61,2.35,0,0,0,0,5104,5925,259,5302,61,61,0,61,0.70,5.40,1.57,1.95
2013-08-13 01:40:00,0,5614,61,0.67,0,0,0,0,4887,6154,414,5652,61,61,0,61,0.20,1.70,0.42,0.62
2013-08-13 01:50:00,0,6003,35,0.05,0,0,0,0,5562,6215,191,6058,10,51,20,51,0.00,0.35,0.10,0.00
2013-08-13 02:00:00,0,6178,10,0.00,0,0,0,0,5780,6538,228,6240,10,10,0,10,0.00,0.00,0.00,0.00
2013-08-13 02:10:00,0,6474,10,0.00,0,0,0,0,6113,6726,166,6465,10,10,0,10,0.00,0.00,0.00,0.00
2013-08-13 02:20:00,0,6862,10,0.00,0,0,0,0,6317,7347,281,6821,10,10,0,10,0.00,0.00,0.00,0.00
2013-08-13 02:30:00,0,7189,10,0.00,0,0,0,0,6768,7429,221,7262,10,10,0,10,0.00,0.00,0.00,0.00
2013-08-13 02:40:00,0,7315,10,0.00,0,0,0,0,6849,7598,222,7327,10,10,0,10,0.00,0.00,0.00,0.00
2013-08-13 02:50:00,0,7549,10,0.00,0,0,0,0,7334,7864,178,7527,10,10,0,10,0.00,0.00,0.00,0.00
2013-08-13 03:00:00,0,7928,10,0.00,0,0,0,0,7583,8344,239,7841,10,10,0,10,0.00,0.00,0.00,0.00
2013-08-13 03:10:00,0,7876,10,0.00,0,0,0,0,7594,8224,162,7856,10,10,0,10,0.00,0.00,0.00,0.00
2013-08-13 03:20:00,0,7734,10,0.00,0,0,0,0,7329,8012,243,7721,10,10,0,10,0.00,0.00,0.00,0.00
2013-08-13 03:30:00,0,7937,10,0.00,0,0,0,0,7604,8343,250,7872,10,10,0,10,0.00,0.00,0.00,0.00
2013-08-13 03:40:00,0,7768,10,0.00,0,0,0,0,7397,8012,216,7788,10,10,0,10,0.00,0.00,0.00,0.00
2013-08-13 03:50:00,0,7752,10,0.00,0,0,0,0,7257,8059,265,7828,10,10,0,10,0.00,0.00,0.00,0.00
2013-08-13 04:00:00,0,7667,10,0.00,0,0,0,0,7421,8109,206,7664,10,10,0,10,0.00,0.00,0.00,0.00
2013-08-13 04:10:00,0,7740,6,0.00,0,0,0,0,7523,7966,164,7704,4,10,3,4,0.00,0.00,0.00,0.00
2013-08-13 04:20:00,0,7742,4,0.00,0,0,0,0,7296,8041,213,7748,4,4,0,4,0.00,0.00,0.00,0.00
2013-08-13 04:30:00,0,7768,4,0.00,0,0,0,0,7366,8179,296,7824,4,4,0,4,0.00,0.00,0.00,0.00
2013-08-13 04:40:00,0,7812,4,0.00,0,0,0,0,7511,8218,211,7828,4,4,0,4,0.00,0.00,0.00,0.00
2013-08-13 04:50:00,0,7650,4,0.00,0,0,0,0,7359,8317,290,7622,4,4,0,4,0.00,0.00,0.00,0.00
2013-08-13 05:00:00,0,7597,4,0.00,0,0,0,0,7160,7920,241,7632,4,4,0,4,0.00,0.00,0.00,0.00
2013-08-13 05:10:00,0,8004,4,0.00,0,0,0,0,7170,8509,344,8034,4,4,0,4,0.00,0.00,0.00,0.00
2013-08-13 05:20:00,0,8106,4,0.00,0,0,0,0,7790,8534,215,8098,4,4,0,4,0.00,0.00,0.00,0.00
2013-08-13 05:30:00,0,8281,4,0.00,0,0,0,0,7971,8699,231,8220,4,4,0,4,0.00,0.00,0.00,0.00
2013-08-13 05:40:00,0,20801,4,0.00,0,0,0,0,8269,38044,11374,16916,4,4,0,4,0.00,0.00,0.00,0.00
2013-08-13 05:50:00,0,41812,0,0.00,0,0,0,0,35539,48289,3733,41897,0,0,0,0,0.00,0.00,0.00,0.00
2013-08-13 06:00:00,0,41964,0,0.00,0,0,0,0,35289,48834,4132,42436,0,0,0,0,0.00,0.00,0.00,0.00
2013-08-13 06:10:00,0,43897,0,0.00,0,0,0,0,38937,49056,3038,44234,0,0,0,0,0.00,0.00,0.00,0.00
2013-08-13 06:20:00,0,44649,0,0.00,0,0,0,0,38527,50000,4703,44984,0,0,0,0,0.00,0.00,0.00,0.00
2013-08-13 06:30:00,0,40392,0,0.00,0,0,0,0,32658,50000,4888,41042,0,0,0,0,0.00,0.00,0.00,0.00
2013-08-13 06:40:00,0,31365,8,0.02,0,0,0,0,24606,45506,6976,27612,0,41,16,0,0.00,0.10,0.04,0.00
2013-08-13 06:50:00,0,29116,50,0.21,0,0,0,0,23419,33588,3255,29999,41,51,3,51,0.10,0.40,0.11,0.20
2013-08-13 07:00:00,0,23592,51,0.32,0,0,0,0,20382,29489,2845,22804,51,51,0,51,0.10,0.65,0.17,0.30
2013-08-13 07:10:00,0,25296,51,0.09,0,0,0,0,21521,28069,2183,26352,51,51,0,51,0.00,0.15,0.05,0.10
2013-08-13 07:20:00,0,22474,54,0.16,0,0,0,0,16049,29478,4471,21839,51,61,5,51,0.05,0.45,0.12,0.15
2013-08-13 07:30:00,0,13857,51,0.28,0,0,0,0,10645,18123,2346,13758,51,51,0,51,0.15,0.40,0.06,0.30
2013-08-13 07:40:00,0,10791,51,0.64,0,0,0,0,8739,12569,1380,10836,51,52,0,51,0.25,1.20,0.28,0.57
2013-08-13 07:50:00,0,13434,52,0.59,0,0,0,0,9710,16639,2402,13926,51,52,0,52,0.20,1.15,0.32,0.42
2013-08-13 08:00:00,0,14086,51,0.28,0,0,0,0,12671,15726,1059,14113,51,51,0,51,0.20,0.35,0.05,0.30
2013-08-13 08:10:00,0,13109,50,0.12,0,0,0,0,12418,14070,667,12840,0,61,17,51,0.00,0.25,0.08,0.12
2013-08-13 08:20:00,0,12089,33,0.23,0,0,0,0,9617,14207,1507,12192,0,61,27,51,0.00,0.65,0.23,0.15
2013-08-13 08:30:00,0,9838,51,0.17,0,0,0,0,9027,12057,811,9524,51,51,0,51,0.05,0.40,0.11,0.15
2013-08-13 08:40:00,0,13341,11,0.01,0,0,0,0,11309,15506,1293,13356,0,61,23,0,0.00,0.05,0.02,0.00
2013-08-13 08:50:00,0,13854,38,0.24,0,0,0,0,12854,15354,771,13561,0,61,25,51,0.00,0.55,0.20,0.20
2013-08-13 09:00:00,0,14371,51,0.36,0,0,0,0,13002,16582,1044,13972,51,52,0,51,0.20,0.55,0.10,0.35
2013-08-13 09:10:00,0,15536,51,0.33,0,0,0,0,12195,18338,2067,15866,51,52,0,51,0.00,0.60,0.21,0.35
2013-08-13 09:20:00,0,10135,52,1.04,0,0,0,0,8862,11668,829,10112,52,52,0,52,0.70,1.55,0.27,0.97
2013-08-13 09:30:00,0,8984,52,0.58,0,0,0,0,8385,9937,440,9024,51,52,0,52,0.20,1.05,0.28,0.45
2013-08-13 09:40:00,0,11088,51,0.21,0,0,0,0,9650,11758,622,11142,51,51,0,51,0.05,0.65,0.17,0.12
2013-08-13 09:50:00,0,10893,20,0.02,0,0,0,0,10307,11971,477,10764,0,51,25,0,0.00,0.05,0.02,0.00
2013-08-13 10:00:00,0,10782,0,0.00,0,0,0,0,10149,11916,537,10748,0,0,0,0,0.00,0.00,0.00,0.00
2013-08-13 10:10:00,0,10728,28,0.04,0,0,0,0,9955,11131,325,10757,0,61,28,26,0.00,0.15,0.05,0.03
2013-08-13 10:20:00,0,11292,55,0.09,0,0,0,0,10034,13130,953,11022,51,61,5,51,0.00,0.15,0.04,0.10
2013-08-13 10:30:00,0,14470,51,0.20,0,0,0,0,13263,15421,645,14450,51,51,0,51,0.05,0.55,0.14,0.15
2013-08-13 10:40:00,0,14416,51,0.25,0,0,0,0,12778,15930,813,14495,51,51,0,51,0.10,0.45,0.12,0.23
2013-08-13 10:50:00,0,12290,51,0.45,0,0,0,0,9526,15076,1708,12366,51,52,0,51,0.15,1.05,0.26,0.38
2013-08-13 11:00:00,0,8352,52,1.36,0,0,0,0,7161,9922,792,8452,52,52,0,52,1.10,1.75,0.19,1.35
2013-08-13 11:10:00,2,7596,56,2.13,0,2,1,2,6664,8224,451,7658,52,61,4,56,1.45,3.60,0.57,2.03
2013-08-13 11:20:00,2,7489,52,2.85,0,2,1,2,6884,8345,412,7378,52,52,0,52,2.10,3.55,0.49,2.80
2013-08-13 11:30:00,2,8074,56,3.44,2,2,0,2,6884,8951,656,8202,52,61,4,52,1.85,7.20,1.69,2.95
2013-08-13 11:40:00,2,8300,61,3.10,2,2,0,2,7829,8698,261,8266,61,61,0,61,2.10,4.60,0.77,2.95
2013-08-13 11:50:00,2,8684,61,4.20,2,2,0,2,7439,9458,704,8898,61,61,0,61,2.75,7.00,1.18,4.15
2013-08-13 12:00:00,2,7402,61,6.40,2,2,0,2,6267,8423,619,7180,61,61,0,61,4.55,7.90,1.25,6.55
2013-08-13 12:10:00,2,6496,61,7.39,2,2,0,2,5359,8239,775,6412,61,61,0,61,5.50,9.45,1.30,7.70
2013-08-13 12:20:00,2,7484,61,6.44,2,2,0,2,5830,9255,1154,7204,61,62,0,61,3.35,18.65,4.19,5.47
2013-08-13 12:30:00,2,7410,61,5.03,2,2,0,2,6462,8154,593,7411,61,61,0,61,3.90,6.25,0.71,4.82
2013-08-13 12:40:00,2,7304,61,4.74,2,2,0,2,6339,9025,684,7227,61,61,0,61,3.35,6.85,0.89,4.65
2013-08-13 12:50:00,2,7245,61,3.52,2,2,0,2,6685,7916,376,7231,61,61,0,61,2.85,4.50,0.55,3.25
2013-08-13 13:00:00,2,7334,56,3.81,2,2,0,2,6441,7945,394,7434,52,61,4,52,2.50,9.05,1.86,3.38
2013-08-13 13:10:00,2,8296,61,3.70,2,2,0,2,7403,9124,549,8267,61,61,0,61,2.10,7.95,1.75,2.97
2013-08-13 13:20:00,2,8579,61,2.86,2,2,0,2,7805,9258,516,8614,61,61,0,61,2.25,4.25,0.62,2.65
2013-08-13 13:30:00,2,8355,61,2.55,2,2,0,2,6924,10224,984,8218,61,61,0,61,1.30,4.00,0.70,2.50
2013-08-13 13:40:00,2,8673,60,2.62,2,2,0,2,7995,9518,414,8564,52,61,3,61,1.50,3.40,0.61,2.60
2013-08-13 13:50:00,2,8429,57,4.58,2,2,0,2,7035,10135,888,8246,52,61,4,61,3.20,6.75,1.09,4.20
2013-08-13 14:00:00,2,8184,61,6.08,2,2,0,2,5381,11796,2074,8227,61,62,0,61,4.00,10.25,1.74,5.72
2013-08-13 14:10:00,2,10554,61,3.32,2,2,0,2,8855,12587,1139,10357,61,61,0,61,2.10,4.95,0.75,3.47
2013-08-13 14:20:00,2,10833,61,4.92,2,2,0,2,9446,11566,588,10884,61,61,0,61,2.35,8.45,1.84,4.65
2013-08-13 14:30:00,2,11170,61,2.89,2,2,0,2,10389,12900,783,10842,61,61,0,61,1.35,5.35,1.17,2.92
2013-08-13 14:40:00,2,11197,61,1.50,2,2,0,2,10134,12926,793,10846,61,61,0,61,0.85,3.25,0.68,1.28
2013-08-13 14:50:00,2,12424,59,1.32,2,2,0,2,11490,13925,763,12352,52,61,4,61,0.50,2.60,0.68,1.08
2013-08-13 15:00:00,2,12994,52,0.82,2,2,0,2,10902,14568,1017,13259,51,52,0,52,0.35,1.35,0.32,0.88
2013-08-13 15:10:00,2,13750,52,0.55,2,2,0,2,12228,14918,795,13750,51,52,0,52,0.25,0.90,0.17,0.52
2013-08-13 15:20:00,2,11995,56,2.02,2,2,0,2,10435,14020,1239,11651,52,61,4,56,0.75,5.05,1.27,1.62
2013-08-13 15:30:00,2,11131,61,1.25,2,2,0,2,10173,11654,486,11136,61,61,0,61,0.40,3.60,0.97,0.80
"Period start","avg(HW err(1)/warn(2) (#))","avg(Visibility (m))","avg(Weather code (#))","avg(Precip intensity (mm/h))","min(HW err(1)/warn(2) (#))","max(HW err(1)/warn(2) (#))","std(HW err(1)/warn(2) (#))","med(HW err(1)/warn(2) (#))","min(Visibility (m))","max(Visibility (m))","std(Visibility (m))","med(Visibility (m))","min(Weather code (#))","max(Weather code (#))","std(Weather code (#))","med(Weather code (#))","min(Precip intensity (mm/h))","max(Precip intensity (mm/h))","std(Precip intensity (mm/h))","med(Precip intensity (mm/h))"
2013-08-13 17:40:00,2,9875,55,0.22,2,2,0,2,9315,10841,471,9790,51,61,5,51,0.00,0.55,0.23,0.15
2013-08-13 17:50:00,2,9409,52,0.70,2,2,0,2,8453,9899,375,9492,51,52,0,52,0.30,1.30,0.32,0.62
2013-08-13 18:00:00,2,10008,59,1.29,2,2,0,2,9338,10880,481,9948,51,61,4,61,0.20,3.70,1.18,0.78
2013-08-13 18:10:00,2,10112,61,1.38,2,2,0,2,8909,12102,947,10064,61,61,0,61,0.20,6.25,1.84,0.45
2013-08-13 18:20:00,2,10341,54,0.07,2,2,0,2,8691,12426,1354,10032,51,61,5,51,0.00,0.15,0.05,0.05
2013-08-13 18:30:00,2,10849,20,0.02,2,2,0,2,10159,11718,556,10718,0,51,25,0,0.00,0.15,0.05,0.00
2013-08-13 18:40:00,2,10472,53,0.07,2,2,0,2,9726,11275,431,10415,51,61,4,51,0.00,0.25,0.08,0.05
2013-08-13 18:50:00,2,9997,36,0.02,2,2,0,2,8744,11430,977,9749,0,51,23,51,0.00,0.10,0.03,0.00
2013-08-13 19:00:00,2,10392,0,0.00,2,2,0,2,9123,11812,958,10300,0,0,0,0,0.00,0.00,0.00,0.00
2013-08-13 19:10:00,2,11652,12,0.01,2,2,0,2,9630,13465,1245,11640,0,61,24,0,0.00,0.05,0.02,0.00
2013-08-13 19:20:00,2,13688,5,0.00,2,2,0,2,10557,17216,2310,13491,0,51,15,0,0.00,0.00,0.00,0.00
2013-08-13 19:30:00,2,12780,28,0.25,2,2,0,2,8759,15372,1854,13264,0,61,28,26,0.00,1.00,0.38,0.00
2013-08-13 19:40:00,2,11265,53,0.36,2,2,0,2,9277,12972,1241,11626,51,61,4,51,0.05,1.05,0.29,0.35
2013-08-13 19:50:00,2,12016,52,0.23,2,2,0,2,9941,14295,1239,11852,51,61,3,51,0.05,0.65,0.18,0.17
2013-08-13 20:00:00,2,12717,51,0.07,2,2,0,2,11803,14257,703,12552,51,51,0,51,0.00,0.25,0.08,0.05
2013-08-13 20:10:00,2,12003,5,0.01,2,2,0,2,10123,14233,1092,12167,0,51,15,0,0.00,0.05,0.02,0.00
2013-08-13 20:20:00,2,12563,0,0.00,2,2,0,2,10980,14545,1134,12536,0,0,0,0,0.00,0.00,0.00,0.00
2013-08-13 20:30:00,2,14745,0,0.00,2,2,0,2,12302,18034,2074,13755,0,0,0,0,0.00,0.00,0.00,0.00
2013-08-13 20:40:00,2,15544,0,0.00,2,2,0,2,9862,22397,4148,15494,0,0,0,0,0.00,0.00,0.00,0.00
2013-08-13 20:50:00,2,13052,33,0.04,2,2,0,2,9369,16028,2478,13602,0,61,27,51,0.00,0.35,0.10,0.00
2013-08-13 21:00:00,2,14827,43,0.21,2,2,0,2,13743,16273,675,14786,0,61,22,51,0.00,0.65,0.20,0.17
2013-08-13 21:10:00,2,14025,51,0.21,2,2,0,2,11857,15857,1266,13858,51,51,0,51,0.05,0.50,0.16,0.12
2013-08-13 21:20:00,2,17085,51,0.16,2,2,0,2,14288,19491,1397,16964,51,51,0,51,0.05,0.45,0.11,0.12
2013-08-13 21:30:00,2,16556,51,0.11,2,2,0,2,15242,18678,1170,16093,51,51,0,51,0.00,0.30,0.08,0.10
2013-08-13 21:40:00,2,15970,51,0.17,2,2,0,2,14127,17093,829,16160,51,51,0,51,0.10,0.35,0.09,0.15
2013-08-13 21:50:00,2,16776,51,0.17,2,2,0,2,11112,19431,2855,18082,51,51,0,51,0.05,0.35,0.08,0.17
2013-08-13 22:00:00,2,14837,51,0.14,2,2,0,2,10995,20806,2927,15410,51,51,0,51,0.10,0.30,0.06,0.12
2013-08-13 22:10:00,2,12761,51,0.11,2,2,0,2,8855,17353,2773,12352,51,51,0,51,0.05,0.20,0.05,0.10
2013-08-13 22:20:00,2,16173,51,0.15,2,2,0,2,9496,21117,3123,16864,51,51,0,51,0.10,0.30,0.06,0.15
2013-08-13 22:30:00,2,14309,51,0.11,2,2,0,2,9843,18315,2464,14816,51,51,0,51,0.00,0.20,0.05,0.10
2013-08-13 22:40:00,2,14008,51,0.12,2,2,0,2,9482,19204,2561,13945,51,51,0,51,0.05,0.30,0.07,0.10
2013-08-13 22:50:00,2,15866,51,0.15,2,2,0,2,13265,18520,1654,15610,51,51,0,51,0.05,0.30,0.07,0.15
2013-08-13 23:00:00,2,13325,51,0.29,2,2,0,2,10306,16789,2061,13546,51,51,0,51,0.15,0.50,0.10,0.28
2013-08-13 23:10:00,2,11401,52,0.42,2,2,0,2,9417,13489,1073,11506,51,52,0,52,0.30,0.55,0.08,0.40
2013-08-13 23:20:00,2,13738,51,0.38,2,2,0,2,11896,18097,2235,12580,51,52,0,51,0.15,0.75,0.16,0.40
2013-08-13 23:30:00,2,14173,51,0.28,2,2,0,2,11652,19067,2057,13297,51,51,0,51,0.15,0.45,0.09,0.28
2013-08-13 23:40:00,2,13092,51,0.29,2,2,0,2,11037,16271,1786,12574,51,51,0,51,0.20,0.55,0.12,0.25
2013-08-13 23:50:00,2,11329,52,0.65,2,2,0,2,8846,15255,1808,10974,51,52,0,52,0.40,0.90,0.16,0.65
